This is the latest recevied weather packets stored in our database for station/object DB0DUS-10. If no packets are shown the sender has not sent any weather packets the latest 1 day(s).
| Time | Temp. | Humidity | Pressure | Rain* | Wind** | Luminosity | Snow |
|---|---|---|---|---|---|---|---|
| 1778011081 | 11.67° C | 88% | 1008.3 hPa | 0 mm | 1.34 m/s, 310° | - | - |
| 1778009880 | 11.67° C | 87% | 1008.3 hPa | 0 mm | 1.79 m/s, 327° | - | - |
| 1778009581 | 12.22° C | 87% | 1008.3 hPa | 0 mm | 2.68 m/s, 358° | - | - |
| 1778008080 | 12.22° C | 86% | 1008.2 hPa | 0 mm | 2.68 m/s, 358° | - | - |
| 1778006581 | 12.22° C | 85% | 1008.1 hPa | 0 mm | 2.68 m/s, 329° | - | - |
| 1778006280 | 12.22° C | 85% | 1008.2 hPa | 0 mm | 3.58 m/s, 310° | - | - |
| 1778005081 | 12.22° C | 85% | 1008.2 hPa | 0 mm | 1.79 m/s, 333° | - | - |
| 1778004480 | 12.78° C | 84% | 1008.2 hPa | 0 mm | 4.02 m/s, 315° | - | - |
| 1778003581 | 12.78° C | 84% | 1008.2 hPa | 0 mm | 1.34 m/s, 331° | - | - |
| 1778002680 | 12.78° C | 84% | 1008.3 hPa | 0 mm | 0.89 m/s, 43° | - | - |
| 1778002091 | 13.33° C | 83% | 1008.3 hPa | 0 mm | 3.13 m/s, 11° | - | - |
| 1778000880 | 13.33° C | 83% | 1008.3 hPa | 0 mm | 2.24 m/s, 46° | - | - |
| 1778000581 | 13.33° C | 83% | 1008.2 hPa | 0 mm | 2.68 m/s, 26° | - | - |
| 1777999081 | 13.33° C | 82% | 1008.3 hPa | 0 mm | 6.26 m/s, 302° | - | - |
| 1777997581 | 13.89° C | 81% | 1008.4 hPa | 0 mm | 0.89 m/s, 336° | - | - |
| 1777997281 | 13.89° C | 81% | 1008.4 hPa | 0 mm | 4.02 m/s, 0° | - | - |
| 1777996081 | 13.89° C | 81% | 1008.5 hPa | 0 mm | 2.24 m/s, 323° | - | - |
| 1777995481 | 13.89° C | 81% | 1008.5 hPa | 0 mm | 1.34 m/s, 15° | - | - |
| 1777994582 | 13.89° C | 80% | 1008.7 hPa | 0 mm | 4.02 m/s, 317° | - | - |
| 1777993681 | 14.44° C | 79% | 1008.8 hPa | 0 mm | 3.13 m/s, 22° | - | - |
| 1777993082 | 14.44° C | 78% | 1008.9 hPa | 0 mm | 3.58 m/s, 307° | - | - |
| 1777991881 | 15° C | 77% | 1008.9 hPa | 0 mm | 3.13 m/s, 281° | - | - |
| 1777991582 | 15° C | 77% | 1008.8 hPa | 0 mm | 3.58 m/s, 336° | - | - |
| 1777990081 | 15° C | 77% | 1009 hPa | 0 mm | 2.24 m/s, 299° | - | - |
| 1777988582 | 15.56° C | 77% | 1009.2 hPa | 0 mm | 1.79 m/s, 305° | - | - |
* Rain latest hour (hover to see other rain measurements)
** Current wind speed in m/s (hover to see current wind gust speed)